RH
71 76 79 84 87 88 90 91 93 93 93 91 88 86 85 83 81 81 81 80 81 84 83 80 80 81 82 81 82 83 81 78 72 67 63 59 57 54 51 49 45 43 41 35 29 24 19 14 12 11 11 11 11 11 11 11 11 10 8 6 6 8 10 11 12 11 9 9 8 6 5 4 4 3 3 3 3 3 3 3 3 3 3 4 3 3 3 3
53 57 59 66 75 79 80 82 81 82 85 86 85 83 82 81 81 81 81 81 79 77 73 70 68 68 66 65 69 71 68 65 62 60 58 52 47 42 37 33 28 25 23 22 20 17 14 12 11 11 11 11 11 10 10 10 9 8 6 7 9 10 11 12 11 10 8 7 7 5 4 4 3 3 3 3 3 2 3 3 3 3 3 3 3 3 3 3
47 52 54 56 66 70 70 70 71 75 79 81 84 83 82 82 81 79 78 74 68 63 60 58 57 57 55 53 55 57 55 53 51 50 46 40 33 26 21 17 15 12 11 11 11 10 10 10 11 11 11 11 10 10 9 7 7 7 7 10 12 12 12 12 11 10 8 7 6 5 4 3 3 3 3 3 3 3 3 3 3 3 3 3 3 3 3 3
43 47 52 55 63 64 59 62 69 76 79 81 84 83 82 80 78 77 73 66 58 53 50 47 45 46 46 45 45 45 45 43 41 39 33 27 20 15 12 10 9 10 10 10 11 11 11 11 12 12 11 10 9 8 7 6 8 10 12 13 13 12 12 11 10 8 7 6 5 4 3 3 3 3 3 3 3 3 3 3 3 3 3 3 3 3 2 3
43 42 44 51 62 61 53 58 72 80 81 82 84 83 81 80 78 77 73 66 59 53 47 40 36 35 36 36 36 36 36 33 29 26 21 15 11 8 8 8 9 10 11 11 11 11 11 11 11 10 8 7 6 5 7 9 11 13 14 13 12 12 11 10 8 7 6 5 4 4 3 3 3 3 3 3 3 3 3 2 2 2 2 2 3 3 3 3
42 43 40 44 54 55 51 58 73 82 82 83 85 84 82 80 78 74 67 58 49 44 40 35 31 29 29 29 30 29 27 23 18 15 11 8 6 7 8 8 9 9 9 9 9 9 8 7 7 6 6 6 6 9 12 14 15 14 14 12 11 10 8 7 6 5 4 4 4 3 3 3 3 3 2 3 3 2 2 2 2 2 2 3 3 3 3 3
30 40 42 46 52 52 50 59 73 81 83 83 82 80 78 73 68 61 50 39 32 30 29 27 25 23 22 22 22 21 18 14 11 9 6 6 6 6 7 7 7 7 7 7 6 6 6 5 6 8 10 11 12 14 15 14 13 12 11 9 8 6 5 5 4 4 3 3 3 2 3 2 2 2 2 2 2 2 2 2 3 2 3 3 2 3 3 3
18 26 34 43 57 59 55 59 67 76 79 78 76 72 67 60 53 43 33 26 24 23 21 18 17 16 16 15 14 12 10 7 6 6 5 6 6 6 6 6 6 6 5 6 6 8 9 10 12 15 15 14 14 13 12 11 9 8 7 6 5 4 4 3 3 3 2 2 2 2 2 2 2 2 2 2 2 2 2 3 3 3 3 3 3 3 3 4
15 17 20 30 50 61 55 48 51 62 67 66 66 62 55 47 38 29 23 21 20 18 15 13 12 11 10 9 7 6 5 5 5 5 5 5 5 6 5 5 6 7 8 10 12 14 14 14 14 14 12 11 11 9 8 7 6 5 4 4 3 3 3 2 3 2 2 3 2 3 3 2 2 2 3 3 3 3 4 4 4 5 5 6 6 6 7 7
13 14 15 19 34 46 39 30 35 47 52 53 53 48 40 32 25 20 18 17 15 13 11 10 9 7 7 6 5 4 5 5 5 5 5 5 5 6 7 9 12 13 14 15 15 14 13 12 11 9 8 7 6 6 5 5 4 4 3 3 3 3 3 3 3 4 4 4 4 5 5 5 4 4 5 5 6 6 7 8 8 9 10 9 9 9 9 9
11 12 13 15 20 26 22 21 30 37 39 39 36 30 24 19 16 15 14 12 10 9 8 7 6 5 5 4 4 5 5 5 5 5 5 6 9 11 13 14 16 16 14 13 11 10 8 7 6 5 5 4 4 4 4 4 4 4 4 4 4 4 5 6 6 7 7 7 8 8 8 9 9 8 9 10 10 10 11 10 10 9 9 8 8 7 6 6
8 9 11 13 14 16 15 17 24 27 26 24 20 17 15 13 12 11 10 9 8 7 6 5 5 4 4 5 5 5 5 5 6 8 9 12 15 15 15 14 13 12 10 8 7 6 5 4 4 4 4 4 4 4 5 5 6 6 7 7 7 8 9 10 10 11 11 11 12 11 10 9 10 11 11 11 9 8 8 7 6 5 5 5 4 4 4 4
6 7 9 10 11 12 12 13 16 16 15 14 12 12 11 10 9 8 7 7 6 5 5 5 5 5 5 5 5 5 7 9 12 14 15 15 15 13 12 10 9 7 6 5 4 4 4 4 5 5 6 7 8 9 9 10 11 10 11 11 11 11 12 12 11 11 11 11 11 11 9 7 6 8 7 7 6 5 5 4 5 4 4 5 4 5 4 4
4 5 6 7 9 9 9 10 11 11 11 10 10 10 9 8 7 6 6 5 5 5 5 5 5 5 5 6 8 11 13 15 17 16 15 13 11 9 7 6 5 5 5 5 5 6 7 9 10 10 11 12 13 13 13 13 12 12 13 13 11 10 11 11 9 8 8 8 8 7 7 5 4 5 5 5 4 4 4 4 5 5 5 5 5 6 6 6
4 5 6 7 8 8 8 9 9 9 9 8 8 7 6 6 5 5 5 5 5 5 5 5 6 8 10 13 15 17 17 16 14 12 10 8 7 6 5 7 7 8 10 11 11 12 13 14 14 14 14 14 14 13 13 12 12 12 12 10 9 8 7 8 7 5 5 5 5 5 5 5 4 5 5 5 5 5 5 5 5 6 6 6 6 7 6 6
7 7 7 7 8 8 8 8 7 7 7 6 6 5 5 5 5 5 5 5 5 6 8 10 12 15 17 17 17 16 14 11 9 7 6 6 8 8 10 13 14 16 16 16 16 16 15 15 15 15 14 13 12 12 11 10 10 9 8 6 5 5 4 5 5 4 5 4 5 5 5 5 5 5 6 6 6 6 6 6 6 6 5 5 5 5 5 4
7 7 7 7 7 6 6 6 6 6 5 5 5 5 5 5 5 5 6 8 10 12 15 16 17 17 16 13 11 9 8 7 7 7 8 10 13 15 16 18 18 18 18 17 16 15 14 13 13 12 11 10 10 9 8 6 5 5 4 4 4 4 4 4 5 5 6 6 7 7 6 7 6 6 7 6 6 5 5 4 4 4 3 3 3 3 3 3
5 6 6 6 5 5 5 5 5 5 5 5 5 5 6 7 9 11 13 15 17 17 17 15 13 12 9 7 7 7 8 9 11 13 14 15 16 18 18 18 17 16 15 14 13 11 10 9 9 8 7 7 6 5 4 4 4 4 3 4 4 5 5 5 6 7 8 8 7 7 7 6 6 5 5 4 4 3 3 3 3 3 3 3 3 3 3 3
5 5 5 5 5 5 5 5 5 5 6 6 8 10 12 14 16 17 18 17 16 15 12 10 8 7 8 9 11 12 14 16 16 17 18 18 17 17 16 15 14 12 11 9 7 7 6 5 4 4 4 4 4 3 4 4 4 5 5 5 6 7 7 7 7 7 7 6 5 4 4 3 4 3 3 3 3 3 3 4 4 4 4 4 4 4 4 4
5 5 5 5 5 6 6 7 9 10 11 13 15 17 18 17 17 15 13 11 10 9 8 8 9 11 13 15 17 17 18 18 17 17 17 16 14 13 11 10 8 7 6 4 4 4 3 4 4 4 4 4 5 5 5 6 7 7 8 7 7 7 6 5 5 5 5 4 3 3 3 3 3 3 3 3 3 4 4 5 5 5 5 5 5 5 5 5
7 8 8 9 10 11 13 14 16 17 17 17 16 16 14 11 10 9 8 8 9 10 12 14 15 17 18 18 18 18 18 17 15 13 12 11 8 7 6 5 4 4 4 3 4 4 4 5 5 5 6 7 7 8 8 8 7 7 6 5 5 4 4 4 4 4 4 4 4 4 4 5 5 4 5 5 5 6 6 6 6 7 7 7 7 7 6 6
14 15 16 17 17 17 17 17 16 15 13 11 9 9 8 8 9 11 12 13 15 16 17 18 19 19 19 18 16 14 13 12 9 7 6 5 4 4 4 3 4 4 4 5 5 6 6 6 7 8 8 8 8 7 6 5 5 4 4 4 4 4 4 4 5 5 5 5 4 4 5 5 6 7 7 7 7 8 8 8 8 9 10 9 9 10 9 8
17 16 15 14 14 12 11 10 9 8 8 8 9 10 12 14 16 17 18 18 18 18 18 17 17 16 15 14 11 8 7 6 4 4 4 4 4 4 4 4 5 5 5 6 7 7 7 8 8 7 6 6 5 4 4 4 4 4 4 4 5 5 5 5 5 6 6 6 6 5 5 6 7 8 9 9 9 10 10 10 11 12 12 11 12 12 12 10
10 10 10 9 9 9 10 10 11 12 13 15 16 17 18 19 19 19 18 17 16 15 14 13 11 9 9 7 6 5 4 4 4 4 4 4 4 5 5 5 6 7 7 7 7 7 6 5 5 4 4 4 4 4 4 5 5 5 5 5 5 5 6 6 6 6 6 6 7 7 6 6 8 10 11 13 13 12 13 13 13 13 13 14 14 13 12 11
12 13 14 14 15 16 17 18 19 20 20 21 21 21 20 19 18 15 14 13 11 10 9 8 7 5 5 4 4 4 4 4 4 5 5 5 5 6 6 6 6 7 6 6 5 4 4 3 3 4 4 4 4 4 4 5 5 5 5 5 5 6 6 6 7 6 5 6 7 8 7 6 8 11 13 15 17 17 17 16 15 15 16 15 13 10 10 9
19 20 20 20 21 21 22 21 21 22 21 20 19 18 17 16 15 13 11 9 7 6 5 5 5 5 4 4 4 4 4 4 4 4 5 6 7 7 6 6 5 5 4 3 3 3 3 3 4 4 4 4 4 5 5 5 5 5 6 6 6 8 7 8 8 7 5 5 8 10 10 9 8 14 18 18 21 22 21 19 18 18 17 14 12 12 13 12
21 22 21 21 20 19 19 18 17 18 17 16 15 14 13 11 10 10 8 7 6 5 4 4 5 4 4 4 3 4 4 4 4 5 6 7 7 6 5 4 4 3 3 3 3 4 4 4 5 5 5 5 5 6 5 5 5 6 6 6 7 8 8 8 8 8 7 6 10 11 12 11 8 18 27 23 22 23 21 20 20 20 18 16 16 18 18 17
20 20 19 18 16 15 14 12 11 11 10 9 9 9 9 8 7 7 6 5 5 5 5 4 4 4 4 3 3 3 4 5 6 7 6 6 5 4 3 3 3 3 3 4 4 4 5 5 5 5 6 7 6 6 6 6 7 7 7 8 9 9 9 9 9 9 9 7 10 10 12 12 9 23 36 27 20 20 18 16 18 20 21 20 22 24 24 25
16 15 14 13 12 11 10 9 8 7 6 6 5 5 6 6 6 5 5 5 5 4 4 4 4 4 3 3 4 4 6 6 6 5 4 4 3 3 3 3 4 4 4 4 5 5 6 6 6 6 8 8 8 8 8 8 9 9 10 10 11 11 10 10 10 10 9 7 10 10 11 12 11 23 33 23 15 16 17 20 22 23 24 25 28 31 32 32
12 11 10 9 9 8 7 6 6 5 5 5 4 4 5 5 5 5 5 5 5 4 4 4 4 4 3 5 6 6 6 6 4 4 3 3 3 3 4 4 5 5 5 6 6 7 7 8 8 8 9 10 10 11 11 12 12 12 12 12 11 11 9 9 9 9 7 7 9 9 10 13 15 20 22 15 12 14 18 24 24 24 26 29 34 37 38 38
9 8 8 7 7 6 5 5 4 4 4 4 5 5 5 5 4 4 4 5 5 4 3 4 4 5 6 6 7 6 5 4 3 3 3 4 4 4 5 5 5 6 7 7 8 9 9 9 9 10 11 10 10 12 14 14 13 13 13 12 9 8 8 7 7 8 7 7 8 9 10 12 16 17 14 12 13 14 17 22 24 24 25 29 35 40 42 44
7 6 6 5 5 5 4 4 4 5 5 5 5 5 5 5 4 3 4 4 4 4 4 5 5 6 6 5 4 4 3 3 3 4 4 4 4 5 5 5 5 6 6 7 8 10 12 12 11 12 12 11 10 11 12 12 13 13 12 11 9 8 7 7 7 7 7 7 8 9 9 11 15 15 12 12 14 13 16 20 23 24 23 26 34 41 44 48
5 5 5 5 4 5 5 5 5 5 5 6 5 5 5 5 3 3 3 3 3 4 5 6 5 5 4 3 3 3 4 4 4 4 5 5 5 6 6 6 7 7 7 8 8 10 12 12 12 12 14 14 11 10 10 10 11 11 11 11 10 10 10 8 8 8 8 8 7 8 9 10 13 14 12 12 12 12 15 19 24 27 28 30 36 43 51 60
5 4 5 5 5 5 5 5 6 5 5 5 5 6 6 4 2 2 3 3 4 5 5 5 4 3 3 3 4 4 5 5 5 5 6 6 7 8 7 8 9 9 10 10 10 10 12 13 13 14 16 16 13 13 11 10 11 11 11 11 11 12 13 11 11 11 11 10 8 10 10 10 12 12 11 11 12 13 16 21 28 32 34 39 44 53 67 79
5 5 5 5 5 6 6 6 5 5 5 4 4 5 5 3 2 3 4 4 4 4 3 3 3 4 5 5 5 5 5 6 6 7 8 8 8 9 9 10 11 12 12 12 13 12 14 18 19 17 19 17 14 14 12 11 12 11 11 11 10 12 13 13 13 14 15 13 11 10 10 10 12 11 10 12 14 16 18 22 30 36 37 40 43 47 57 66
5 5 5 6 5 5 6 5 5 4 4 4 4 5 3 3 3 4 4 3 3 3 4 4 5 5 6 5 6 6 6 7 8 8 9 10 10 11 12 13 13 14 15 15 15 14 14 19 20 19 19 17 14 14 13 12 11 10 11 11 11 12 14 15 15 14 16 16 13 11 12 12 12 11 12 15 16 17 17 20 26 31 31 29 30 34 42 53
5 5 6 6 6 6 5 4 4 4 4 4 4 4 3 3 4 3 3 3 4 5 5 6 6 6 6 6 7 7 8 9 9 10 11 11 12 13 13 15 16 16 17 17 17 16 15 17 18 17 17 16 14 14 13 12 11 11 11 12 13 15 15 16 16 17 18 18 15 14 14 13 12 13 12 15 17 18 19 22 28 30 29 30 35 42 53 63
6 6 6 6 5 5 4 4 4 3 4 5 5 4 3 3 3 3 4 4 5 6 6 6 6 6 7 7 8 8 9 10 10 11 12 12 13 14 15 17 17 18 19 19 18 18 16 16 16 16 16 16 15 13 12 12 12 12 13 15 16 16 17 17 17 19 21 21 19 18 16 13 13 15 17 19 20 20 24 32 40 41 41 48 58 67 73 74
7 6 6 5 5 5 4 4 3 3 4 5 4 3 3 3 4 5 5 6 6 6 6 6 6 7 8 8 9 10 10 11 11 11 12 13 15 16 18 19 20 20 21 20 20 18 17 16 15 15 15 15 14 13 12 12 13 14 14 15 16 17 18 17 16 19 22 22 21 21 20 16 16 20 23 24 26 38 54 65 69 69 69 72 76 79 80 76
7 6 5 5 4 4 4 3 3 4 5 4 3 3 4 5 5 6 6 6 6 7 7 7 8 8 9 9 10 10 10 10 10 11 13 14 16 18 20 21 22 22 22 21 20 18 17 16 14 14 15 15 14 14 14 14 15 14 13 14 16 16 17 16 15 17 20 21 22 25 23 18 20 25 26 33 50 75 93 97 95 95 93 91 88 88 88 86
6 6 5 4 4 4 4 3 3 4 4 3 3 4 5 6 6 6 6 7 7 7 8 8 8 9 9 9 9 9 10 10 11 13 14 16 17 19 22 23 23 23 22 21 20 18 18 16 14 14 15 15 15 15 16 16 15 14 13 14 15 15 16 18 16 15 16 19 22 26 25 21 23 27 34 57 86 100 102 100 100 101 101 101 100 99 99 97
6 6 4 4 4 4 3 3 3 3 3 4 5 5 6 6 6 7 7 7 8 8 8 8 8 8 8 9 9 9 10 11 12 14 16 18 20 22 24 24 23 23 22 20 20 18 18 16 16 15 15 16 16 16 15 14 14 14 13 14 15 16 17 19 20 20 18 18 20 24 24 22 25 33 46 67 84 86 82 87 95 100 101 101 102 102 102 102
5 5 4 4 4 4 3 3 3 3 4 5 6 6 6 7 7 7 7 7 7 7 8 8 8 8 9 9 10 10 11 12 13 15 17 21 24 25 25 24 23 22 21 20 19 18 18 18 17 16 15 15 14 13 12 12 13 13 13 14 15 15 16 18 20 21 19 18 21 25 26 24 29 40 47 52 60 65 72 83 94 102 104 103 102 98 90 81
5 4 4 4 4 3 3 3 3 4 5 5 6 6 6 6 6 7 6 7 7 7 8 8 8 8 8 8 8 9 10 11 13 16 20 24 26 26 25 24 22 21 21 20 19 19 19 20 19 18 17 16 13 11 11 11 12 13 13 14 14 14 16 16 17 17 17 18 19 25 30 27 29 35 40 51 68 80 89 95 97 97 94 84 71 57 44 35
4 4 4 5 4 3 3 3 3 4 5 5 6 6 6 6 6 6 6 7 7 7 7 7 6 6 7 7 8 9 10 12 16 21 24 26 27 26 25 23 22 21 21 20 20 20 20 20 20 21 22 23 21 18 16 14 13 14 14 14 15 16 15 15 16 16 16 17 18 26 33 28 28 38 54 75 90 90 89 88 80 73 63 47 33 27 27 30
4 5 5 4 3 3 3 3 4 5 5 5 5 5 5 6 6 6 7 7 7 6 6 6 7 8 9 9 9 11 13 17 21 25 28 28 26 25 24 23 23 22 21 21 21 20 19 19 19 19 21 23 23 20 18 16 15 15 15 16 16 16 16 17 17 17 21 24 23 26 34 38 47 65 80 90 90 86 83 76 65 56 46 38 33 33 36 41
5 5 4 3 3 3 4 4 4 5 5 5 5 5 5 5 6 6 6 6 6 6 6 8 10 11 11 10 11 14 19 24 27 28 28 28 27 26 25 24 24 23 22 22 21 20 19 18 17 15 16 19 19 18 16 16 16 16 17 17 17 17 17 16 18 23 28 31 30 30 38 52 69 84 90 87 84 85 78 64 59 62 64 65 60 49 45 49
5 4 3 3 3 3 4 4 4 4 4 4 4 4 5 5 5 5 5 5 5 6 8 11 12 12 11 11 12 16 21 25 27 28 27 26 26 27 26 24 24 23 23 23 21 20 19 16 14 13 14 17 18 17 16 17 17 18 18 18 17 17 16 17 21 26 29 36 44 43 45 62 82 89 82 74 79 82 71 64 76 91 92 87 79 71 68 72
4 3 3 3 3 4 4 4 4 4 4 4 4 4 5 5 4 4 4 5 7 9 10 12 13 13 12 13 17 20 22 22 22 24 25 25 25 25 25 25 25 25 24 23 21 20 17 14 14 14 14 16 17 17 18 18 18 19 19 18 18 17 18 20 21 25 33 42 49 52 57 66 75 76 66 61 68 73 70 78 97 103 92 84 85 89 88 84
3 3 3 3 3 3 3 3 4 4 4 4 4 4 4 4 4 4 5 7 9 11 12 13 13 13 14 18 22 25 26 25 24 24 25 26 26 26 25 25 26 26 24 23 21 18 15 14 15 16 15 16 18 18 19 19 19 20 19 18 18 17 18 18 19 27 38 42 46 58 63 51 42 54 65 60 56 60 72 89 101 99 88 83 87 87 81 78
3 3 3 3 3 3 3 4 4 4 4 4 4 4 4 4 5 6 7 9 11 13 14 15 15 16 19 24 26 28 29 30 29 29 29 28 28 28 27 27 27 25 23 22 19 16 15 16 17 17 17 17 18 18 19 20 19 19 18 18 18 18 17 17 21 29 41 54 61 59 48 34 37 60 71 56 45 59 78 93 103 102 91 85 87 85 82 86
3 3 3 3 3 3 4 4 4 4 4 4 4 4 4 5 6 8 10 12 13 16 17 17 18 21 24 27 28 28 30 31 32 32 32 32 31 30 29 29 27 24 22 20 17 15 17 18 19 19 19 18 19 19 19 20 19 18 18 18 18 20 20 20 23 29 39 58 64 45 27 29 40 51 52 41 43 65 82 90 103 107 94 83 83 90 96 100
Wind_Speed
21 21 20 19 18 17 16 14 14 14 14 14 13 11 10 9 9 9 8 7 7 7 6 6 5 6 8 9 10 11 12 13 13 13 15 16 17 19 19 20 20 20 20 20 20 19 18 17 17 18 19 19 20 21 22 23 23 23 22 20 19 20 20 22 23 23 22 21 20 21 22 23 24 25 23 23 24 25 26 28 28 27 28 30 30 29 29 30
21 20 19 18 17 16 16 15 14 13 12 11 10 9 8 8 7 7 7 7 7 7 6 5 4 4 6 6 8 9 10 11 12 14 15 16 17 18 18 18 18 18 18 18 17 17 16 16 16 17 18 19 20 21 21 22 21 20 20 19 19 20 20 22 23 23 23 21 20 22 22 23 24 26 25 25 26 27 28 30 31 30 31 33 34 33 32 33
21 20 19 18 17 16 16 15 15 13 11 10 9 9 8 7 7 7 8 8 7 7 5 5 6 7 8 9 10 10 11 12 13 14 16 16 16 16 15 15 15 15 15 15 15 15 15 15 15 16 17 18 19 20 20 20 19 18 18 18 19 20 20 22 23 23 24 22 21 22 22 23 25 26 26 27 28 29 31 32 33 33 34 36 37 37 36 36
22 21 20 19 18 17 17 16 15 13 12 11 11 10 9 9 8 9 9 8 7 5 5 7 9 10 10 11 11 12 13 13 14 14 15 15 14 14 13 13 13 13 13 13 13 14 13 14 14 15 17 17 18 18 18 17 17 16 17 18 19 19 20 22 23 23 24 23 23 22 23 24 25 27 28 29 30 31 33 34 35 36 36 38 39 40 39 39
24 23 22 21 19 18 17 15 15 14 13 13 12 12 11 11 10 10 10 8 7 7 8 9 10 10 11 11 12 12 13 13 13 13 13 12 12 12 11 11 11 11 11 11 11 12 12 13 14 15 16 16 16 16 15 15 15 15 17 19 19 19 20 22 23 23 24 24 24 24 25 26 27 28 30 31 32 33 34 36 37 38 39 39 40 42 42 41
26 25 24 22 20 18 17 16 15 14 14 14 13 13 13 12 12 11 10 9 9 10 10 10 10 11 11 11 11 12 12 12 12 11 11 11 10 10 10 9 9 10 10 10 11 11 12 13 13 13 14 14 14 14 14 14 15 16 18 19 20 20 21 22 23 24 24 25 25 26 28 29 29 30 32 34 35 35 36 38 39 40 41 41 41 42 44 44
25 25 24 22 20 18 17 17 16 15 15 14 14 14 13 13 12 11 10 10 10 9 9 10 10 11 11 11 10 10 10 9 9 9 9 8 8 8 9 9 9 9 9 10 10 10 11 11 10 11 12 12 12 13 13 14 15 16 17 19 20 20 21 22 23 25 25 26 27 28 30 31 32 32 33 36 37 37 37 38 39 40 41 42 43 43 45 46
25 24 23 22 20 19 18 17 16 16 15 15 15 14 13 13 12 11 10 9 9 9 9 9 9 9 9 8 8 7 7 7 6 7 6 6 7 7 8 8 7 8 8 8 8 8 8 8 8 9 10 11 12 13 14 14 15 16 17 18 20 21 22 23 25 26 27 28 29 29 31 33 34 34 35 38 38 38 38 38 40 41 42 43 44 45 45 46
23 22 21 20 20 19 18 16 16 16 16 15 15 14 13 12 11 10 9 9 8 8 8 8 7 6 6 5 5 5 5 5 5 5 5 5 6 6 6 6 5 5 6 5 5 5 6 6 7 9 10 11 12 13 14 15 15 16 18 18 20 22 23 24 26 27 28 30 30 30 33 35 36 37 36 38 40 40 40 40 41 42 42 43 43 44 44 45
22 21 20 18 18 18 17 15 15 16 16 16 15 14 13 12 11 10 9 9 8 8 7 6 5 5 4 4 4 5 5 5 4 4 4 4 3 3 3 2 2 3 3 3 4 5 5 6 8 9 10 11 12 13 14 15 16 18 19 20 22 24 25 26 28 28 30 31 31 31 32 35 38 39 38 38 39 41 41 42 42 43 43 42 43 43 44 44
20 20 19 18 18 18 17 16 16 17 17 16 15 14 12 11 10 9 9 9 8 7 6 5 5 4 5 5 5 5 5 4 3 2 1 1 1 1 1 1 2 2 3 4 5 6 7 7 9 10 10 12 13 14 16 17 18 19 21 23 25 26 26 27 29 30 31 32 32 30 30 34 38 39 39 38 38 40 41 42 42 42 42 43 43 43 43 43
19 19 19 18 18 18 17 17 17 17 16 15 14 12 11 10 10 10 10 9 8 7 6 6 6 6 6 6 5 5 4 4 4 4 4 4 3 3 2 2 2 3 4 4 5 7 8 9 11 12 12 14 15 17 18 19 20 22 23 24 27 29 29 28 30 31 32 32 33 32 30 32 36 38 39 39 38 38 40 41 41 40 41 42 42 43 43 43
17 18 17 17 17 17 17 16 16 16 15 14 13 12 12 12 12 11 10 9 8 8 8 7 7 7 6 6 6 6 7 7 6 6 5 5 4 2 1 1 2 4 5 6 7 8 10 11 13 14 15 17 18 19 20 21 23 23 24 24 25 29 31 30 30 31 32 33 34 35 34 31 32 35 37 39 39 38 38 39 40 41 42 42 43 43 44 45
18 18 18 17 17 17 17 17 17 16 16 15 15 14 14 14 13 12 11 11 11 10 9 9 8 8 8 8 9 9 9 8 7 6 4 3 1 1 2 4 5 6 8 9 10 12 13 15 16 18 18 20 21 22 23 23 23 24 25 25 25 27 30 32 31 31 33 35 36 37 37 36 34 34 35 37 39 40 40 41 42 44 45 45 46 46 46 47
23 23 22 21 21 21 21 20 19 19 18 18 17 17 16 16 15 14 13 13 12 11 11 11 11 11 11 10 10 9 8 7 5 4 3 3 3 4 6 7 9 10 11 13 14 15 16 18 19 20 21 22 23 23 24 24 25 26 27 27 28 28 29 32 32 33 34 36 38 38 39 41 41 40 40 40 42 43 45 46 47 48 49 49 49 49 49 49
29 28 27 27 26 25 24 24 23 22 22 21 21 20 19 18 17 15 14 13 13 13 13 13 13 12 11 10 8 7 6 5 4 4 5 6 7 7 8 10 12 13 15 16 17 18 19 20 21 22 23 23 23 24 25 27 27 28 28 28 30 30 30 32 33 35 37 38 40 41 42 44 45 46 47 47 47 48 48 49 50 51 51 51 51 50 49 49
33 32 32 31 30 29 28 27 26 25 24 23 22 20 19 18 17 16 16 16 15 15 14 13 12 11 9 9 8 7 6 6 6 6 6 7 9 10 11 12 15 16 17 19 20 21 21 22 22 23 23 24 25 27 28 28 27 27 29 30 31 33 33 34 35 37 39 41 43 45 46 47 48 49 50 50 50 50 49 48 48 47 47 47 47 47 47 46
36 35 34 33 32 31 30 28 27 25 24 23 22 21 20 20 19 18 18 17 16 14 13 12 12 10 9 10 9 8 8 8 8 8 8 10 11 12 14 15 17 19 20 21 21 22 23 23 24 25 25 26 27 28 28 28 29 30 32 33 34 36 37 38 39 39 40 42 43 45 47 48 49 50 50 50 49 47 46 45 44 42 41 41 40 40 41 41
36 35 34 33 32 31 30 29 28 27 26 25 23 22 22 21 19 18 17 16 14 13 12 12 12 11 10 10 10 9 9 9 10 10 11 13 14 15 17 18 19 20 21 22 23 23 24 24 25 26 26 27 28 29 30 31 33 34 35 36 36 37 39 41 42 42 42 43 43 44 45 46 47 47 47 45 44 43 43 42 41 40 39 38 38 37 37 37
36 35 34 33 32 31 31 30 29 28 27 25 24 22 20 19 18 16 16 16 15 13 13 13 13 12 11 11 10 10 10 10 11 12 13 15 17 18 19 20 20 21 22 23 23 23 24 24 26 27 27 29 30 31 32 34 34 35 36 37 38 39 39 40 42 42 43 43 42 41 41 43 44 43 43 42 41 42 42 41 40 40 40 39 39 38 38 36
36 35 34 33 32 31 30 29 28 27 26 24 23 22 20 19 18 17 17 16 15 14 13 13 13 12 11 11 11 11 11 12 13 15 16 16 18 18 19 20 20 21 21 21 22 24 24 26 27 28 29 31 32 32 33 34 35 36 37 38 39 39 38 38 40 41 42 42 42 41 40 41 42 41 41 42 43 43 42 42 41 41 42 41 41 41 40 38
36 34 33 32 31 30 29 28 27 26 25 24 24 22 21 20 18 17 17 15 14 13 12 12 12 11 11 11 12 12 12 13 14 16 17 17 18 18 19 20 20 20 21 22 23 25 26 27 28 29 30 31 32 33 34 35 36 37 38 38 37 38 37 36 37 40 41 41 41 40 38 39 42 42 43 44 44 44 44 43 43 43 44 43 43 44 43 41
35 34 33 32 31 30 29 28 27 26 25 24 24 22 20 19 17 17 16 13 12 12 11 11 11 11 11 11 13 13 14 14 15 17 17 18 18 18 19 20 20 21 22 23 24 25 26 27 28 29 30 31 32 33 34 35 37 37 36 36 36 38 39 38 38 40 42 42 42 40 38 38 41 43 45 45 44 45 45 43 42 43 43 43 43 45 45 44
35 34 34 33 32 31 30 28 27 26 24 23 22 21 19 18 17 15 13 11 11 10 10 10 11 12 12 12 14 14 14 15 16 17 17 18 19 19 20 21 21 22 22 23 24 25 26 27 28 29 30 31 32 33 34 35 36 36 36 37 38 39 42 42 42 41 42 43 44 43 41 38 40 43 45 44 44 44 43 41 41 42 43 44 47 49 50 49
36 35 34 33 31 30 29 27 25 24 23 22 20 19 17 16 14 13 12 10 9 10 10 11 11 12 13 13 14 14 15 15 15 16 17 18 19 19 20 21 21 22 22 23 24 26 26 28 29 30 30 31 33 34 35 36 37 38 38 39 41 42 43 44 45 44 44 44 45 46 45 41 40 42 43 44 43 40 40 42 44 46 48 51 54 55 55 54
34 33 32 31 29 28 26 25 23 22 21 20 18 17 15 13 12 12 12 11 10 12 12 12 12 13 13 14 13 14 15 16 15 16 18 19 19 19 20 21 21 22 23 24 25 26 27 29 29 30 31 34 35 36 37 38 39 40 41 42 43 44 44 44 45 46 46 46 46 47 47 45 41 39 41 43 40 38 41 46 50 52 54 55 56 55 55 54
32 31 30 28 27 26 24 24 22 21 20 18 16 14 13 13 12 11 11 10 11 12 12 12 13 14 14 14 14 14 15 16 17 18 18 18 18 19 20 21 22 23 24 25 26 28 29 30 31 32 35 36 37 38 39 40 41 42 43 44 44 44 44 45 46 46 47 47 47 46 47 47 44 39 37 39 40 42 47 51 53 54 54 55 53 53 55 55
29 28 27 26 25 24 23 22 21 20 19 17 15 13 12 11 11 11 10 9 10 10 10 11 12 13 14 14 15 16 16 18 18 17 17 18 20 20 21 22 24 25 25 26 28 30 32 33 34 35 37 38 39 40 41 43 44 44 44 45 44 45 46 46 47 46 47 47 47 47 47 48 45 37 33 39 44 48 52 53 54 54 54 54 53 53 54 55
26 25 24 24 23 22 21 20 19 18 17 16 15 14 12 10 10 10 9 10 11 11 11 12 13 13 14 15 16 17 18 18 18 18 19 20 21 22 23 25 26 27 28 29 31 33 34 35 36 36 38 39 40 41 42 44 45 45 45 45 45 46 47 47 47 46 47 48 47 48 49 50 47 40 39 46 51 52 54 54 54 54 54 55 55 54 54 54
24 23 22 21 20 19 19 18 17 16 15 15 15 14 13 12 11 10 9 11 12 12 14 15 15 16 16 17 17 18 18 18 19 21 22 22 24 25 27 28 28 30 31 32 33 34 35 36 37 38 39 40 40 42 44 45 46 47 47 48 47 48 48 49 47 47 48 48 47 49 50 51 50 47 49 53 55 54 54 54 54 55 54 54 55 55 55 57
22 21 19 18 17 16 17 17 17 16 16 15 15 15 14 13 13 12 12 12 13 13 15 15 16 16 17 17 17 18 18 19 20 22 23 24 26 27 27 28 29 30 31 32 33 35 36 37 38 39 40 41 42 43 45 46 48 49 49 50 51 51 51 51 49 49 50 50 49 51 52 53 52 52 54 57 58 58 57 55 55 55 54 55 56 56 58 60
19 18 16 16 15 15 15 16 17 17 17 17 16 15 14 13 13 13 13 13 13 15 15 15 16 17 17 17 18 18 19 20 22 23 24 25 26 28 28 29 31 32 33 35 36 36 36 37 39 40 41 42 44 45 46 48 49 50 51 52 54 56 56 56 55 54 54 53 52 53 54 54 54 56 59 61 62 64 63 59 57 57 57 57 57 59 62 63
17 16 15 15 14 15 15 15 16 17 17 17 14 14 14 12 12 13 13 13 14 15 15 15 17 18 18 19 20 20 22 23 24 26 27 28 29 31 32 33 35 37 38 39 39 38 38 38 40 41 42 44 46 48 50 51 52 52 52 53 55 55 56 58 58 58 58 57 56 56 58 58 58 61 64 65 67 68 67 64 61 60 60 59 59 60 63 64
16 16 15 15 15 15 16 16 17 17 16 15 14 15 13 12 13 13 14 14 14 15 16 17 18 19 20 21 22 23 25 26 27 28 30 31 32 33 35 36 38 39 40 40 41 41 41 41 42 43 43 44 47 48 51 52 52 52 52 52 53 53 54 56 57 58 60 61 60 59 60 61 62 65 67 69 70 70 69 67 64 63 62 61 60 61 63 65
17 16 15 16 16 16 17 17 16 16 15 14 16 16 12 12 13 14 14 15 16 17 19 20 21 22 23 24 25 26 26 28 29 30 32 33 34 35 37 38 39 40 41 41 42 42 42 40 41 42 41 43 45 46 49 51 51 51 51 51 52 53 54 56 57 59 61 63 62 60 60 61 63 67 70 70 71 70 71 68 65 65 66 66 65 64 65 66
17 16 16 16 15 15 15 14 14 15 14 15 17 15 13 13 14 14 15 17 19 20 22 23 23 24 25 26 26 28 29 29 31 32 33 34 36 37 38 39 40 41 41 42 42 42 42 39 39 40 40 42 44 45 48 50 50 51 52 52 54 55 56 59 61 62 62 65 65 63 62 63 65 69 71 70 71 71 71 69 68 70 72 73 74 72 71 70
16 17 16 15 14 13 12 11 12 12 14 19 20 16 14 14 14 15 18 20 21 23 23 24 24 25 26 27 27 29 30 30 31 32 34 35 37 38 39 40 41 42 42 42 42 42 42 40 38 40 41 43 45 46 47 50 51 52 53 55 56 57 58 61 64 65 65 67 68 66 66 67 69 73 74 74 74 74 73 71 72 75 78 80 79 76 74 73
16 16 15 14 13 12 12 12 10 12 18 22 20 15 13 15 17 19 21 22 23 24 24 24 25 26 27 27 28 29 30 31 32 33 35 36 38 39 40 41 42 42 42 42 42 42 43 42 40 42 44 44 46 48 48 50 52 54 55 57 59 61 61 62 65 67 66 69 71 69 69 72 75 76 77 76 76 75 73 72 74 78 80 79 77 77 78 78
15 15 13 12 12 12 12 10 10 17 23 20 14 12 16 19 20 22 22 23 24 24 24 25 26 26 28 28 29 30 31 33 34 35 36 38 39 40 41 42 43 43 43 43 43 43 43 44 43 44 46 46 47 49 51 52 53 55 58 60 61 62 63 63 64 65 67 70 73 73 73 76 78 78 78 78 76 73 70 69 72 75 77 78 80 83 84 83
16 14 11 11 13 12 10 10 16 22 19 13 13 17 20 21 22 23 23 23 23 24 25 26 27 27 28 30 31 32 34 35 35 36 37 39 40 40 41 42 42 43 43 43 43 43 43 45 46 46 47 47 49 51 53 55 57 59 61 62 63 63 64 65 64 64 67 71 73 75 78 80 80 80 79 77 71 64 61 64 69 74 78 81 84 84 85 84
15 13 10 11 14 13 11 14 19 18 14 14 18 20 21 22 23 23 23 23 24 25 26 27 28 29 30 32 33 34 35 35 36 36 38 39 40 41 41 42 42 42 43 43 43 44 44 47 49 49 48 47 49 52 54 57 60 62 64 64 64 65 66 67 67 66 68 72 74 77 81 84 84 82 78 72 64 60 63 70 76 80 82 82 82 82 81 81
14 13 12 13 14 13 12 16 18 16 16 18 20 20 21 22 22 22 23 24 25 26 27 28 30 31 32 33 34 34 35 35 36 37 38 39 40 41 41 41 42 42 43 43 44 45 46 48 50 50 49 48 50 54 57 60 62 63 65 65 65 67 68 70 72 72 74 76 78 81 84 87 86 80 75 71 68 70 73 76 79 80 80 80 80 81 81 81
14 13 13 15 14 12 14 18 17 17 19 19 19 21 21 21 22 23 24 25 26 27 29 30 32 32 33 33 33 34 35 35 36 37 38 39 39 40 40 41 42 42 43 43 44 46 48 50 52 51 50 49 51 55 58 61 63 66 67 67 69 70 71 73 74 76 79 81 83 84 86 88 85 80 77 75 74 74 74 74 77 79 81 83 84 86 87 86
14 13 14 14 12 13 16 16 16 17 18 18 19 20 20 21 23 24 25 26 28 29 30 31 33 34 34 34 34 35 35 36 36 37 38 38 39 39 40 41 41 42 42 43 45 47 49 51 54 56 56 55 56 59 61 62 65 67 69 70 70 71 72 73 75 78 81 84 86 86 87 88 85 81 79 76 73 72 73 75 78 80 83 85 85 83 79 75
14 14 14 13 11 15 16 14 15 16 16 18 19 20 21 22 24 25 26 27 28 30 31 33 35 36 36 35 35 35 35 36 37 37 38 38 38 39 40 40 41 42 42 43 46 48 49 52 55 58 60 60 62 64 66 67 68 68 69 70 70 71 73 75 78 82 85 87 88 87 87 89 87 82 78 74 72 74 75 76 78 79 81 81 77 72 66 63
14 14 13 11 13 16 15 13 15 15 16 18 20 21 22 23 24 26 27 28 30 31 34 36 37 36 35 35 34 34 35 36 37 37 37 38 39 39 40 40 41 41 42 44 46 48 50 52 55 59 60 60 61 64 66 68 69 69 70 71 72 73 75 78 83 86 88 89 90 88 87 87 84 79 76 74 74 76 78 78 78 78 76 74 70 66 63 62
15 14 12 11 13 14 13 13 14 15 17 19 20 21 22 24 25 27 28 30 32 34 36 38 37 36 35 34 33 34 34 35 36 37 37 38 39 39 39 40 41 41 43 44 47 49 51 53 56 60 62 61 62 65 67 68 70 71 71 72 73 75 77 82 86 87 87 88 90 89 86 83 79 76 76 76 76 77 78 77 75 72 70 67 66 66 65 65
14 12 10 12 13 12 12 14 15 16 18 20 20 22 23 25 27 29 31 33 35 37 38 37 36 35 34 33 33 34 34 34 35 36 36 37 38 38 39 40 40 41 43 45 48 50 52 55 58 61 63 62 64 67 68 68 70 71 72 73 74 77 80 85 88 89 88 86 86 86 83 80 77 76 77 76 75 76 76 71 67 64 63 63 63 64 63 61
11 9 9 11 12 12 12 14 16 17 19 21 22 23 26 28 30 32 34 36 37 38 38 36 35 34 33 33 34 34 35 36 36 36 37 38 38 38 39 40 40 42 44 47 49 51 54 57 59 62 64 63 65 69 69 70 71 72 74 75 76 79 82 86 90 91 88 85 83 83 82 80 77 76 77 75 74 73 70 63 59 58 59 60 59 57 54 51
11 10 9 10 12 13 14 16 17 19 21 22 24 26 29 31 33 34 36 37 38 37 36 35 34 34 33 34 34 35 36 37 38 38 38 39 40 40 40 41 41 44 47 49 51 54 56 59 61 64 66 64 66 69 70 71 74 75 76 77 78 81 84 88 93 94 89 86 85 83 82 82 80 77 77 75 73 69 62 56 53 53 54 54 52 48 46 44
12 11 9 11 13 14 16 18 19 21 23 25 27 29 31 33 35 36 37 38 37 36 35 34 34 33 34 34 34 35 36 37 38 39 40 40 41 41 41 41 43 46 49 51 54 56 59 61 63 66 68 68 68 70 71 73 76 77 78 80 82 85 88 92 96 95 88 84 84 84 85 85 82 79 78 75 69 62 55 50 50 49 47 45 45 44 44 45
15 13 13 15 16 16 17 20 21 23 25 27 30 31 33 35 36 37 37 37 36 36 35 34 33 33 34 34 35 36 36 37 38 39 40 40 41 41 41 42 46 49 51 53 56 59 61 64 66 68 71 72 71 72 73 75 77 79 81 83 86 90 93 95 98 96 87 80 81 85 86 84 81 78 76 70 62 55 50 48 49 49 44 41 42 43 44 45
Wind_Direction
201 203 204 206 205 208 211 209 207 211 213 212 212 215 220 225 229 229 226 219 210 207 205 208 222 239 250 252 250 249 247 248 250 255 262 267 271 274 274 275 275 274 274 275 276 277 278 278 276 275 274 271 270 270 270 270 270 272 271 269 266 264 267 271 272 273 273 274 276 275 274 276 277 274 275 277 275 276 277 277 278 282 283 283 284 283 282 281
204 205 206 205 204 205 206 208 211 213 211 207 204 206 208 211 213 208 201 189 179 176 178 183 194 218 239 244 243 245 249 250 250 255 260 265 268 270 271 272 274 275 276 275 275 275 274 272 269 267 267 267 267 268 268 270 271 270 268 269 269 269 271 273 275 276 277 277 276 275 276 277 277 276 277 276 277 277 277 278 280 282 282 283 284 283 282 280
206 206 207 206 203 204 205 205 208 205 199 195 192 192 190 190 192 188 182 177 176 176 183 199 215 226 237 243 245 247 250 253 254 257 262 265 267 269 270 271 272 274 274 272 271 269 267 263 261 262 263 265 268 269 269 271 271 270 268 270 272 273 276 277 278 280 280 281 280 279 280 281 279 278 279 278 279 280 279 280 282 282 282 283 284 283 282 281
206 205 206 206 203 203 204 203 202 197 192 187 183 181 179 180 182 185 185 183 184 191 209 226 232 233 237 245 250 251 254 258 261 264 267 268 269 271 270 270 271 271 271 270 270 270 269 266 265 267 268 269 272 273 273 273 273 273 273 273 274 277 280 281 281 283 284 286 287 287 287 286 285 284 283 281 280 282 283 283 284 283 283 284 285 284 283 283
204 204 203 204 203 202 200 195 195 192 187 183 180 179 179 182 187 193 196 195 204 217 227 235 241 244 245 248 252 256 258 261 263 266 270 271 270 270 269 269 270 270 272 273 274 276 275 274 274 274 275 274 273 274 275 277 278 279 281 281 282 284 285 285 287 290 292 293 294 294 292 290 289 288 286 284 283 284 286 286 287 286 286 286 286 286 286 285
206 204 203 203 201 199 194 187 186 187 183 179 179 181 182 186 191 198 205 209 217 223 229 237 242 247 250 252 256 259 261 262 263 266 269 269 268 268 268 268 269 271 273 273 274 275 275 274 274 274 274 274 273 276 281 286 287 287 288 288 289 289 290 292 294 297 299 298 297 296 294 291 290 290 289 287 286 288 289 289 290 289 289 288 288 287 287 287
207 206 205 204 201 196 192 186 183 183 181 179 180 183 186 189 194 200 208 214 219 224 232 238 242 248 252 255 257 259 262 264 264 264 262 261 264 267 270 273 276 277 274 271 269 269 271 272 274 276 277 281 284 287 291 292 290 290 290 291 293 295 296 299 300 302 302 299 298 297 295 292 291 292 292 290 290 291 291 292 291 291 291 291 290 289 289 289
206 206 205 205 200 195 194 191 186 183 180 179 181 185 188 191 197 202 209 217 225 231 236 240 244 248 250 253 255 256 258 257 252 249 249 257 269 274 278 280 280 279 276 274 274 278 281 279 288 292 288 293 295 292 293 292 291 290 290 293 297 299 301 303 303 303 302 300 300 300 297 295 293 293 294 292 292 294 295 295 293 292 293 293 293 293 293 293
205 204 202 201 198 195 195 194 189 185 181 180 182 186 190 193 198 205 213 221 228 231 233 235 235 235 238 241 239 239 237 227 224 230 245 262 272 276 283 287 288 286 284 289 298 303 299 288 293 296 292 293 291 290 292 292 294 296 297 299 301 302 304 305 304 304 303 302 303 305 302 298 295 296 298 297 296 298 298 297 296 295 296 296 296 296 295 295
204 203 200 197 194 192 192 189 185 182 180 181 184 188 190 194 200 208 213 216 217 218 218 218 218 217 217 214 209 205 203 205 214 229 247 262 271 278 292 303 298 287 280 285 294 296 291 283 284 288 291 293 294 297 299 300 303 304 305 306 305 304 308 309 308 307 307 306 308 311 309 304 301 300 301 302 300 299 299 298 298 297 297 296 296 295 295 294
199 198 197 194 190 189 187 183 180 179 178 180 183 185 188 193 198 200 200 199 199 198 198 198 195 192 187 183 182 182 190 197 201 206 197 176 144 143 172 188 227 250 258 267 281 290 292 294 296 299 303 306 309 311 312 313 313 312 313 313 311 310 313 314 312 312 311 311 311 311 309 306 303 302 302 302 301 299 298 299 299 298 297 296 296 295 294 293
187 189 189 188 186 185 183 180 179 177 176 177 177 179 181 182 182 180 179 179 179 177 173 170 166 165 167 168 167 162 159 147 133 129 130 138 144 152 171 193 239 267 285 291 295 301 306 316 318 317 320 322 323 323 323 322 320 321 322 320 317 314 315 317 316 314 311 309 307 305 305 305 302 300 300 300 299 299 298 298 298 297 296 295 294 293 292 291
170 173 176 176 177 177 177 175 173 170 167 166 165 165 166 165 165 164 162 160 157 154 152 154 154 152 152 150 139 130 127 126 128 134 141 151 160 167 190 272 296 302 311 314 319 323 327 332 331 329 332 332 331 330 328 328 328 327 323 319 319 316 315 316 314 310 307 305 303 301 301 302 301 299 298 298 298 298 297 296 295 295 294 294 293 293 292 292
147 150 153 156 158 158 157 157 155 153 151 152 152 153 152 151 149 147 146 144 144 146 146 145 142 136 132 130 127 126 131 136 139 142 143 145 136 21 352 339 334 336 335 334 339 341 339 340 340 339 338 336 334 333 331 331 328 321 317 316 317 315 312 310 309 307 305 303 301 300 301 300 301 301 297 296 296 295 295 294 294 294 295 296 297 297 297 297
126 129 132 135 136 137 138 138 139 139 139 140 140 139 138 138 139 140 140 142 143 142 136 131 128 126 127 129 129 133 138 138 137 126 105 64 27 8 359 354 350 349 348 349 349 347 344 344 343 339 337 335 333 330 328 324 318 315 316 316 313 311 308 306 305 306 305 304 302 301 302 302 302 304 302 300 297 296 296 296 297 298 299 300 301 301 301 300
116 118 120 122 123 125 127 128 129 130 131 132 132 133 134 135 136 137 137 136 134 129 126 125 124 125 129 130 129 131 126 112 97 74 54 36 24 11 1 359 357 354 353 352 350 347 345 342 339 336 334 331 326 322 320 318 317 315 314 311 307 306 306 306 305 306 307 309 308 306 305 305 304 305 306 306 305 303 301 301 301 302 303 303 303 303 302 302
112 114 116 118 120 122 124 125 127 128 129 130 130 131 132 132 132 131 129 128 126 124 125 126 124 123 124 117 111 105 89 70 55 42 32 25 19 9 0 356 354 352 349 347 345 344 342 337 334 331 325 320 318 318 317 316 315 312 308 308 308 307 306 308 310 311 311 312 312 311 309 307 306 305 306 307 308 309 308 307 307 307 307 307 306 305 304 303
113 115 117 119 120 122 123 124 125 125 126 126 126 127 127 128 128 128 128 127 125 125 126 123 118 113 106 97 89 78 64 51 39 28 20 15 8 0 356 352 349 348 344 342 341 339 336 332 328 325 321 320 320 318 316 314 311 311 310 310 313 314 312 311 313 315 316 315 314 313 312 310 309 308 309 310 312 313 314 315 315 315 315 314 312 309 307 304
114 115 117 118 119 120 120 121 121 122 122 124 125 126 127 127 127 127 127 124 121 120 119 113 104 96 88 80 72 63 53 41 30 18 10 7 1 356 352 348 345 342 340 339 337 336 334 330 327 327 326 322 320 317 316 316 316 316 316 314 314 318 319 317 315 315 315 316 317 318 318 315 314 314 315 316 318 319 320 322 322 322 321 320 318 314 311 308
113 114 115 116 117 118 119 119 120 121 122 124 124 124 123 122 121 121 118 114 112 110 105 98 90 83 73 64 56 47 39 28 19 10 4 1 356 351 348 344 343 341 339 339 337 336 333 330 329 329 326 321 320 319 319 320 319 319 320 321 320 321 324 323 320 318 316 317 320 323 326 325 323 323 321 321 321 321 321 323 322 322 322 321 320 318 316 314
112 112 113 114 115 116 117 117 118 118 118 118 117 116 114 111 111 110 106 103 101 98 91 84 78 70 59 49 39 29 22 13 7 4 1 357 352 348 346 345 345 343 341 338 337 335 332 331 330 328 325 324 325 324 323 323 323 324 326 327 326 325 327 329 328 326 324 324 325 328 332 331 329 327 323 321 320 319 320 321 319 319 320 319 318 318 316 313
108 109 109 110 111 111 111 111 112 111 111 110 108 108 106 103 103 98 92 90 88 83 78 72 66 58 48 38 29 19 11 5 2 3 0 356 353 350 349 347 345 342 339 337 336 335 333 332 329 327 328 329 330 329 328 328 330 332 331 331 330 329 329 331 334 333 331 330 330 332 335 334 331 327 322 321 320 320 320 319 318 318 318 316 315 315 314 312
106 106 107 107 107 107 107 107 106 106 106 104 103 102 100 96 91 85 80 76 72 69 66 62 57 48 37 29 22 14 9 6 6 7 3 357 355 351 347 345 342 340 339 338 337 335 333 332 330 331 333 334 335 335 336 337 337 336 335 333 333 333 332 332 334 335 333 332 330 331 333 333 330 324 320 319 319 318 317 316 315 314 313 311 311 312 313 312
105 105 105 105 105 104 103 103 101 101 100 97 95 92 88 83 77 74 72 66 62 59 53 49 46 40 31 23 20 16 14 13 11 7 360 355 353 348 344 342 340 340 341 339 337 335 335 336 337 338 338 338 339 340 341 341 339 336 335 334 334 334 334 333 333 332 332 330 328 327 328 330 328 322 319 318 317 316 313 311 310 310 309 308 310 313 315 314
103 102 102 101 100 99 98 97 95 94 91 87 84 80 76 74 71 69 65 56 50 48 41 37 38 36 30 26 23 18 16 14 8 0 354 352 349 343 341 340 338 342 343 341 340 341 341 342 342 341 341 341 341 341 340 338 336 334 334 333 332 333 332 331 330 329 329 328 326 324 324 328 328 322 317 316 316 313 310 308 308 309 309 309 313 316 315 315
98 97 95 94 93 93 92 91 88 85 82 79 77 75 73 70 65 60 52 39 36 39 35 33 35 33 30 26 19 14 13 7 357 353 352 349 345 340 340 340 341 346 348 346 347 347 347 345 344 342 341 341 340 339 336 334 332 331 331 331 331 331 330 328 327 326 327 326 324 323 322 325 326 322 316 313 313 311 309 310 310 310 309 310 314 314 312 312
92 91 91 91 91 90 88 86 84 80 78 75 73 70 67 62 54 48 42 35 40 44 41 39 37 31 26 20 11 7 5 358 353 353 349 344 342 342 344 348 352 354 352 351 350 349 348 345 342 341 339 338 337 334 331 330 329 328 329 328 328 328 326 325 324 324 324 324 323 321 320 321 323 324 317 309 308 309 309 309 309 308 308 311 313 310 309 310
88 89 90 91 90 89 87 84 82 79 76 71 67 62 57 54 49 44 41 41 45 45 42 41 36 29 20 9 4 2 358 355 354 351 345 344 349 352 355 359 359 356 353 351 349 347 346 343 340 339 337 335 333 331 329 328 326 326 326 325 325 325 324 323 323 323 323 323 322 320 319 319 321 323 313 306 308 308 307 306 306 307 308 310 309 306 305 307
86 87 87 87 87 87 85 82 80 77 75 72 66 59 53 50 49 47 43 43 40 33 30 30 26 19 9 0 1 1 359 356 354 353 353 356 359 360 1 1 357 353 351 349 347 345 342 339 337 336 334 333 332 329 328 326 325 325 325 324 325 324 323 323 323 322 322 323 323 322 321 320 321 317 308 309 311 309 307 307 307 308 309 308 304 302 301 302
85 85 85 85 85 85 84 82 80 78 77 75 69 63 58 54 53 48 38 36 32 26 24 19 12 8 2 2 5 4 4 2 2 3 5 5 4 2 360 357 353 351 350 347 345 343 340 338 336 335 333 333 332 330 329 327 326 326 325 325 326 325 324 323 323 322 323 325 325 324 324 322 320 315 312 313 313 309 308 307 306 307 307 304 300 297 296 297
85 84 84 84 84 85 86 86 84 81 80 79 76 71 61 50 46 39 28 25 20 17 17 10 6 5 2 5 9 12 14 13 12 10 7 5 2 360 356 351 349 349 348 346 344 342 339 338 337 335 334 333 333 332 330 328 327 327 327 327 326 325 324 324 324 324 325 327 328 326 326 324 319 316 316 315 313 310 308 306 304 304 304 302 298 293 292 293
82 82 81 82 82 84 87 88 87 85 82 78 73 66 54 35 26 24 19 16 12 12 12 6 3 5 6 12 17 20 19 15 12 8 3 0 358 355 351 347 345 345 345 345 344 342 340 339 337 336 335 334 334 332 331 329 329 329 330 329 328 327 327 327 328 328 328 329 329 328 326 324 319 318 318 316 313 311 309 307 305 304 305 303 298 294 291 290
81 81 81 83 85 86 86 85 84 83 79 74 64 54 44 17 0 10 13 10 10 10 9 8 10 14 20 24 23 20 16 11 8 4 1 358 355 353 350 347 346 345 344 343 342 340 338 337 336 337 337 335 334 333 332 332 331 331 331 331 330 329 329 330 330 329 328 328 328 328 327 324 321 319 318 316 313 312 311 309 307 306 306 303 299 296 293 290
81 82 83 86 86 84 81 78 77 75 70 65 55 43 27 356 352 7 8 5 8 12 17 25 29 30 30 27 21 17 13 9 6 3 0 357 354 351 349 347 346 344 342 341 339 338 337 337 338 338 338 337 336 334 333 332 332 331 332 331 331 330 329 330 330 329 328 326 326 326 324 322 320 318 316 314 313 312 311 310 307 305 305 303 300 296 293 289
80 81 84 86 87 86 82 75 70 65 56 49 48 37 8 347 357 5 5 11 22 30 34 37 35 32 28 23 18 14 10 7 5 1 358 355 352 350 348 346 344 342 341 339 338 338 338 342 341 339 340 338 336 334 332 331 331 331 332 331 331 331 329 329 329 328 326 324 324 323 321 320 319 316 316 314 313 312 310 308 305 302 302 301 298 294 291 288
82 82 82 83 83 82 80 75 68 60 45 35 37 27 357 351 4 12 24 36 41 41 39 36 31 27 24 19 15 11 7 5 3 359 355 352 350 348 346 344 343 341 339 338 338 336 337 342 342 340 341 339 336 334 332 331 332 332 333 332 331 331 330 330 328 327 325 323 322 322 321 320 318 315 314 313 311 309 307 304 301 299 298 298 297 295 292 289
83 82 81 78 72 66 62 59 56 54 43 31 24 8 354 6 26 39 47 47 43 39 35 31 27 23 20 16 12 9 5 2 360 356 353 350 347 346 344 342 341 339 338 337 337 336 335 339 342 340 340 340 337 334 332 331 333 333 333 331 330 330 331 330 328 327 325 322 321 321 321 320 317 315 313 312 310 308 306 303 300 298 298 298 297 296 295 293
81 77 75 69 62 54 43 35 34 43 40 26 9 1 18 41 52 52 48 43 39 35 31 27 23 20 17 12 8 5 1 358 355 351 349 347 345 344 342 340 339 338 338 337 336 336 335 336 340 341 340 340 337 334 332 332 333 333 331 331 331 331 331 330 328 327 325 321 319 320 320 319 317 315 314 312 311 309 306 302 298 298 298 299 298 297 296 296
77 68 62 55 47 40 33 25 28 36 32 19 10 34 54 56 52 47 42 39 35 31 28 24 20 16 13 7 3 360 356 353 350 347 346 344 343 342 340 339 338 338 337 337 337 337 336 335 337 340 341 340 336 333 332 332 332 330 330 331 332 331 330 329 328 326 323 320 319 318 318 319 318 316 314 313 312 310 305 301 299 299 299 298 297 297 297 297
72 59 46 41 39 30 16 17 31 35 33 35 52 59 57 51 47 43 40 36 31 27 23 19 14 10 6 2 358 354 351 349 347 345 343 342 342 341 339 339 338 337 337 337 337 337 337 335 335 338 340 339 337 335 333 332 331 331 331 331 330 329 328 326 326 325 322 320 319 317 317 319 319 316 315 314 313 309 303 300 299 299 298 297 297 296 296 296
66 50 31 33 35 19 7 28 42 49 59 65 61 54 50 47 43 40 36 32 27 21 16 11 7 3 359 356 353 349 347 345 344 343 342 341 340 340 339 338 337 337 336 337 337 337 337 335 334 336 338 339 337 334 332 332 332 332 331 331 330 329 328 326 325 325 324 322 320 317 316 318 319 317 316 314 310 304 299 298 298 298 298 298 297 296 295 295
58 43 28 31 26 12 25 53 64 71 69 61 54 49 46 42 38 34 29 24 19 14 9 4 1 357 354 352 349 347 345 343 343 343 342 341 340 339 339 338 337 337 337 337 338 338 337 335 334 335 338 339 336 333 333 334 332 331 331 331 330 329 329 328 327 327 326 325 322 318 316 318 319 317 314 311 305 301 300 299 299 299 299 297 296 295 294 293
49 36 28 26 19 24 56 73 75 70 61 54 49 44 40 35 30 26 20 15 10 6 2 359 357 354 351 349 347 345 344 343 343 342 342 342 340 339 339 338 337 337 338 338 339 338 337 336 333 333 336 337 334 333 334 334 332 331 332 332 332 331 331 330 329 327 326 325 322 318 316 318 318 315 312 310 307 305 304 302 300 299 297 295 295 295 295 295
39 30 25 20 25 53 73 77 70 62 56 49 44 37 31 27 21 17 13 9 5 2 360 358 355 352 349 347 345 343 343 343 342 342 342 341 340 340 339 338 338 338 339 339 339 338 338 336 333 333 335 337 336 335 335 336 334 333 333 333 332 331 330 329 328 326 324 324 322 318 316 318 318 316 315 313 310 307 304 301 299 298 297 297 298 300 302 303
32 26 23 23 47 72 75 68 61 57 50 43 36 28 22 19 14 10 8 5 2 1 358 356 352 349 347 345 344 343 343 343 343 343 343 341 341 341 339 339 339 340 340 339 339 338 338 336 335 335 337 340 340 338 337 338 336 334 334 332 331 331 330 329 328 326 324 323 322 320 318 319 321 319 317 313 308 305 303 301 301 301 303 305 307 310 312 312
28 23 25 42 70 78 71 60 55 50 42 35 29 20 15 12 9 7 5 2 1 358 355 353 350 347 346 345 344 345 345 344 343 344 343 342 341 341 340 340 340 340 340 339 338 338 338 337 337 337 339 342 340 337 337 336 335 334 333 332 332 332 332 331 329 327 325 323 323 323 322 322 322 319 315 312 308 307 306 307 308 310 311 313 315 316 316 314
26 24 37 66 81 76 64 54 47 40 33 27 20 14 10 7 5 4 1 359 356 353 352 350 348 347 346 345 345 346 346 345 344 344 343 342 341 341 341 341 340 339 339 339 338 338 339 339 340 340 342 342 338 336 336 336 334 334 333 333 333 333 332 331 329 327 325 324 324 326 325 322 320 318 314 312 311 311 312 314 316 317 318 317 316 315 314 313
26 31 57 81 80 66 56 47 37 29 25 20 13 8 5 2 1 359 356 354 352 351 350 349 348 347 346 346 347 347 346 345 343 342 342 341 341 342 341 340 339 338 338 338 338 339 340 342 342 343 344 342 338 336 336 336 334 334 334 334 334 334 333 332 330 328 327 326 326 326 325 322 319 317 315 314 315 316 317 320 321 319 317 315 313 312 312 312
34 50 76 84 71 54 43 35 25 19 16 13 7 3 1 359 357 356 353 351 351 350 350 349 348 347 347 347 348 346 345 344 343 342 342 341 341 341 340 340 338 338 338 338 339 340 342 344 343 343 345 344 338 336 336 336 335 334 334 334 335 335 334 332 330 329 328 329 328 326 324 322 319 317 317 317 318 319 320 321 320 317 315 313 313 313 314 314
50 64 75 74 58 40 26 20 15 12 10 7 3 0 359 358 356 354 352 351 351 351 350 349 348 348 349 349 348 347 345 343 342 342 342 342 341 341 340 340 339 339 339 339 341 342 343 345 343 342 345 345 341 338 337 336 336 335 335 335 336 335 334 333 332 331 331 331 329 326 323 322 322 320 319 319 319 319 320 320 320 318 316 315 315 315 316 315
53 59 56 48 39 25 15 9 6 6 4 2 360 359 357 356 354 352 352 352 352 352 351 350 349 350 350 349 348 347 345 343 342 342 342 342 342 340 340 340 339 340 341 341 343 344 344 344 343 342 344 345 342 340 339 337 336 336 336 337 337 335 335 336 335 333 333 332 328 325 324 323 323 321 319 319 319 318 320 323 325 323 320 317 317 318 319 319
42 42 37 31 24 14 7 4 2 2 360 357 357 356 354 353 353 353 354 354 353 353 351 351 351 351 349 349 348 346 344 343 342 342 342 342 341 339 339 340 341 341 343 343 344 345 344 343 343 343 344 345 343 341 341 339 337 338 338 338 338 336 337 338 336 335 335 332 327 325 325 324 323 321 320 320 320 319 323 329 332 329 323 319 319 321 322 322